Location: *
(47.7167°N, 1.7333°W)
Time: 09:54:02
(UTC+00:00)

Cosmos 2058 - Pass Details

Date: 09 April 2020
Orbit: 563 x 583 km, 82.5° (Epoch: 25 May)

Event Time Altitude Azimuth Distance (km) Brightness Sun altitude
Rises 20:50:06 0° 350° (N) 2,775 7.1 -19.2°
Reaches altitude 10° 20:52:18 10° 351° (N) 1,875 6.2 -19.5°
Maximum altitude 20:56:26 89° 75° (ENE) 576 2.8 -20.1°
Enters shadow 20:57:30 49° 170° (S) 739 3.1 -20.2°
